Satellite: UO-22
Catalog number: 21575
Epoch time:      05040.86060916
Element set:    0327
Inclination:      098.2280 deg
RA of node:       011.1073 deg
Eccentricity:    0.0008391
Arg of perigee:   111.9264 deg
Mean anomaly:     248.2828 deg
Mean motion:   14.39460142 rev/day
Decay rate:        3.2e-07 rev/day^2
Epoch rev:           71218
Checksum:              271

Satellite: KO-23
Catalog number: 22077
Epoch time:      05040.79959582
Element set:    0388
Inclination:      066.0865 deg
RA of node:       053.2328 deg
Eccentricity:    0.0014822
Arg of perigee:   286.8050 deg
Mean anomaly:     073.1342 deg
Mean motion:   12.86428158 rev/day
Decay rate:       -3.7e-07 rev/day^2
Epoch rev:           58720
Checksum:              314

Satellite: AO-27
Catalog number: 22825
Epoch time:      05040.70175929
Element set:    0059
Inclination:      098.2461 deg
RA of node:       042.9750 deg
Eccentricity:    0.0007420
Arg of perigee:   279.8801 deg
Mean anomaly:     080.1544 deg
Mean motion:   14.29113315 rev/day
Decay rate:        1.7e-07 rev/day^2
Epoch rev:           59301
Checksum:              285

Satellite: IO-26
Catalog number: 22826
Epoch time:      05040.96476753
Element set:    0734
Inclination:      098.2424 deg
RA of node:       044.5147 deg
Eccentricity:    0.0008221
Arg of perigee:   282.3595 deg
Mean anomaly:     077.6672 deg
Mean motion:   14.29352328 rev/day
Decay rate:        4.0e-07 rev/day^2
Epoch rev:           59311
Checksum:              307

Satellite: KO-25
Catalog number: 22828
Epoch time:      05039.52024723
Element set:    0984
Inclination:      098.2374 deg
RA of node:       043.3680 deg
Eccentricity:    0.0009051
Arg of perigee:   258.6536 deg
Mean anomaly:     101.3620 deg
Mean motion:   14.29667400 rev/day
Decay rate:       -4.1e-07 rev/day^2
Epoch rev:           56113
Checksum:              284

Satellite: TO-31
Catalog number: 25396
Epoch time:      05040.77950049
Element set:    0174
Inclination:      098.5454 deg
RA of node:       111.7730 deg
Eccentricity:    0.0003182
Arg of perigee:   174.9272 deg
Mean anomaly:     185.1945 deg
Mean motion:   14.23657523 rev/day
Decay rate:       -4.3e-07 rev/day^2
Epoch rev:           34228
Checksum:              301

Satellite: GO-32
Catalog number: 25397
Epoch time:      05040.74076558
Element set:    0670
Inclination:      098.5398 deg
RA of node:       109.4938 deg
Eccentricity:    0.0001336
Arg of perigee:   168.8033 deg
Mean anomaly:     191.3206 deg
Mean motion:   14.23069019 rev/day
Decay rate:        3.0e-07 rev/day^2
Epoch rev:           34220
Checksum:              295

Satellite: UO-36
Catalog number: 25693
Epoch time:      05040.90451078
Element set:    0902
Inclination:      064.5604 deg
RA of node:       314.5913 deg
Eccentricity:    0.0037191
Arg of perigee:   227.8511 deg
Mean anomaly:     131.9431 deg
Mean motion:   14.78463772 rev/day
Decay rate:        7.5e-07 rev/day^2
Epoch rev:           31300
Checksum:              287

Satellite: SO-41
Catalog number: 26545
Epoch time:      05040.74503234
Element set:    0996
Inclination:      064.5595 deg
RA of node:       330.2977 deg
Eccentricity:    0.0036705
Arg of perigee:   326.8829 deg
Mean anomaly:     033.0039 deg
Mean motion:   14.80013724 rev/day
Decay rate:       3.46e-06 rev/day^2
Epoch rev:           23606
Checksum:              300

Satellite: MO-46
Catalog number: 26548
Epoch time:      05040.84574965
Element set:    0103
Inclination:      064.5595 deg
RA of node:       314.1722 deg
Eccentricity:    0.0035064
Arg of perigee:   316.2384 deg
Mean anomaly:     043.5933 deg
Mean motion:   14.82615488 rev/day
Decay rate:       4.25e-06 rev/day^2
Epoch rev:           23641
Checksum:              306

Satellite: SO-42
Catalog number: 26549
Epoch time:      05040.90903019
Element set:    0059
Inclination:      064.5601 deg
RA of node:       337.7209 deg
Eccentricity:    0.0037616
Arg of perigee:   334.0403 deg
Mean anomaly:     025.8871 deg
Mean motion:   14.78896261 rev/day
Decay rate:       -8.0e-08 rev/day^2
Epoch rev:           23593
Checksum:              305

Satellite: NO-44
Catalog number: 26931
Epoch time:      05040.83076278
Element set:    0967
Inclination:      067.0511 deg
RA of node:       195.7946 deg
Eccentricity:    0.0007152
Arg of perigee:   263.4771 deg
Mean anomaly:     096.5518 deg
Mean motion:   14.29360030 rev/day
Decay rate:      -1.18e-06 rev/day^2
Epoch rev:           17556
Checksum:              314

Satellite: AO-49
Catalog number: 27605
Epoch time:      05040.81583483
Element set:    0658
Inclination:      064.5580 deg
RA of node:       162.5889 deg
Eccentricity:    0.0085888
Arg of perigee:   265.0603 deg
Mean anomaly:     094.0696 deg
Mean motion:   14.72034804 rev/day
Decay rate:       2.67e-06 rev/day^2
Epoch rev:           11510
Checksum:              327

Satellite: SO-50
Catalog number: 27607
Epoch time:      05040.83156732
Element set:    0639
Inclination:      064.5584 deg
RA of node:       167.4797 deg
Eccentricity:    0.0086649
Arg of perigee:   263.9512 deg
Mean anomaly:     095.1743 deg
Mean motion:   14.70880097 rev/day
Decay rate:       4.08e-06 rev/day^2
Epoch rev:           11500
Checksum:              325

